Погода в Остроге

Украина / Ровненская область     50°19′39″N   26°30′49″E
темп.,
°C
ветер,
м/с
пор.,
м/с
влажн.,
%
обл.,
%
осадки,
мм/ч
давл.,
гПа
погр.,
м
9 мая, вс
вс900:00+3з34902 0.0 102157
03:00+2з35925 0.0 102285
06:00+1з37940 0.0 1024126
09:00+7зсз35705 0.0 1025509
12:00+11зсз34485 0.0 10241474
15:00+14зсз244016 0.0 10242044
18:00+14зсз134122 0.0 10231871
21:00+9вюв33627 0.0 102428
10 мая, пн
пн1000:00+7юв48705 0.0 1026136
03:00+6ююв35755 0.0 102678
06:00+5ююв36755 0.0 102695
09:00+12ююв59595 0.0 1026400
12:00+16ююв784977 0.0 10251226
15:00+18ююв674770 0.0 10241411
18:00+17юв575617 0.0 10231228
21:00+11юв410779 0.0 1024182
11 мая, вт
вт1100:00+9юв411823 0.0 1024201
03:00+7юв411800 0.0 1024201
06:00+7юв411830 0.0 1024202
09:00+12юв58640 0.0 1023481
12:00+16вюв67430 0.0 10221131
15:00+18вюв56390 0.0 10201376
18:00+18вюв57570 0.0 10191221
21:00+12в378229 0.0 1018130
12 мая, ср
ср1200:00+10вюв38925 0.0 1018162
03:00+9в399718 0.0 1017240
06:00+9вюв61091100 0.0 1017468
09:00+11вюв696846 0.0 1015673
12:00+15вюв685439 0.0 10141391
15:00+16в8754100 0.0 10121800
18:00+13в5663100 0.1 10121153
21:00+10вюв3776100 0.1 1011199
13 мая, чт
чт1300:00+9вюв3876100 0.0 1010241
03:00+8вюв4979100 0.0 1009328
06:00+8в51088100 0.5 1007385
09:00+8вюв8149497 3.0 1006626
12:00+12юв71386100 1.1 10051208
15:00+13ююв81382100 1.4 10051158
18:00+10ююв51292100 2.8 1005644
21:00+11ю5996100 3.8 1005403